This demonstration page uses our WeatherBlox Daily Observations layout. Learn more.

Left ArrowRight Arrow

Hourly Observations for June 30, 2015

Temp ( °F °C ) Dew Point ( °F °C ) Humidity (%) Winds ( mph kmh ) Pressure ( in mb ) Visibility ( mi km ) Precip ( " mm )
12:51 am 00:51 Clear 81 27.2 56 13.3 42 42 N 6 9 29.79 1009 10 16 0.00 0.00
1:51 am 01:51 Clear 80 26.7 56 13.3 44 44 E 14 22 29.80 1009 10 16 0.00 0.00
2:51 am 02:51 Clear 79 26.1 56 13.3 45 45 E 5 7 29.84 1011 10 16 0.00 0.00
3:51 am 03:51 Clear 77 25 58 14.4 52 52 E 8 13 29.84 1011 10 16 0.00 0.00
4:51 am 04:51 Clear 75 23.9 58 14.4 55 55 E 7 11 29.85 1011 10 16 0.00 0.00
5:51 am 05:51 Sunny 78 25.6 56 13.3 47 47 ESE 5 7 29.87 1012 10 16 0.00 0.00
6:51 am 06:51 Sunny 82 27.8 55 12.8 40 40 ESE 8 13 29.88 1012 10 16 0.00 0.00
7:51 am 07:51 Sunny 85 29.4 56 13.3 37 37 SE 9 15 29.87 1012 10 16 0.00 0.00
8:51 am 08:51 Sunny 88 31.1 53 11.7 30 30 SSW 6 9 29.85 1011 10 16 0.00 0.00
9:51 am 09:51 Sunny 92 33.3 53 11.7 27 27 SSW 9 15 29.83 1010 10 16 0.00 0.00
10:51 am 10:51 Sunny 83 28.3 47 8.3 28 28 S 9 15 29.89 1012 10 16 0.00 0.00
11:51 am 11:51 Sunny 95 35 51 10.6 23 23 VRB 5 7 29.80 1009 10 16 0.00 0.00
12:51 pm 12:51 Sunny 96 35.6 51 10.6 22 22 SSE 5 7 29.77 1008 10 16 0.00 0.00
1:51 pm 13:51 Sunny 100 37.8 51 10.6 19 19 W 10 17 29.72 1006 10 16 0.00 0.00
2:51 pm 14:51 Sunny 102 38.9 49 9.4 17 17 VRB 5 7 29.68 1005 10 16 0.00 0.00
3:51 pm 15:51 Sunny 102 38.9 49 9.4 17 17 WSW 6 9 29.65 1004 10 16 0.00 0.00
4:51 pm 16:51 Mostly Sunny 101 38.3 48 8.9 17 17 SSW 7 11 29.64 1004 10 16 0.00 0.00
5:51 pm 17:51 Mostly Cloudy 99 37.2 50 10 19 19 NW 8 13 29.63 1003 10 16 0.00 0.03
6:36 pm 18:36 Mostly Cloudy with Nearby Thunderstorms 97 36.1 51 10.6 21 21 NW 5 7 29.53 1000 10 16 0.00 0.00
6:51 pm 18:51 Cloudy 74 23.3 67 19.4 79 79 NNW 9 15 29.87 1012 10 16 0.00 0.00
7:51 pm 19:51 Partly Cloudy 89 31.7 61 16.1 39 39 WNW 16 26 29.69 1005 10 16 0.00 0.00
8:51 pm 20:51 Clear 86 30 62 16.7 45 45 NNW 13 20 29.72 1006 10 16 0.00 0.00
9:51 pm 21:51 Clear 85 29.4 62 16.7 46 46 N 8 13 29.73 1007 10 16 0.00 0.00
10:51 pm 22:51 Mostly Clear 84 28.9 62 16.7 48 48 S 6 9 29.76 1008 10 16 0.00 0.00
11:51 pm 23:51 Mostly Clear 84 28.9 61 16.1 46 46 SE 9 15 29.77 1008 10 16 0.00 0.00

Powered by AerisWeather